TELSTAR 19V (43562 NORAD) Tracking and Keplerian Element Data

This shows tracking and keplerian element data for the satellite.

Feedback or suggestion? Click here.




ElementValue
Catalog43562
NameTELSTAR 19V
Epoch Orbit134
Epoch Day315.03573821
Epoch Year2018
RAAN248.8398
Inclination0.0125
Eccentricity0.0002517
Argument of Perigee316.7179
Mean Anonmoly154.4566
Mean Motion1.00273169
Decay Rate-2.84E-06
L11 43562U 18059A 18315.03573821 -.00000284 00000-0 00000+0 0 9994
L22 43562 0.0125 248.8398 0002517 316.7179 154.4566 1.00273169 1349

Live tracking and technical data element details for TELSTAR 19V (NORAD 43562). TELSTAR 19V can be tracked NOW for your location showing map with azimuth and elevation plus other details from your city location.

Track the satellite on the map from your city or location and see movement details for azimuth, elevation, latitude, longitude, range, height, and movement on the map or in text.







IsCatalogInMostPopularTable: catalog: 43562, numindb: 203
Update: records affected: 1



GetName: 43562 TELSTAR 19V

Hit Count: updated at: Tue, 13 Nov 2018 07:07:36 GMT